DW9776 Weather Reports


time (UTC)temp
C
wind
direction
speed
KPH
gust
KPH
rain 1hr
cm
rain 24hr
cm
rain mn
cm
humidity
%
barometer
mb
20260508143022 15 21 4.8 14.5 0.00 0.00 0.00 67 1019.6
20260508142519 15 11 3.2 14.5 0.00 0.00 0.00 69 1019.6
20260508142014 15 321 3.2 8.0 0.00 0.00 0.00 70 1019.6
20260508141524 13 16 4.8 12.9 0.00 0.00 0.00 71 1019.5
20260508141009 13 28 1.6 12.9 0.00 0.00 0.00 72 1019.5
20260508140509 14 49 6.4 14.5 0.00 0.00 0.00 73 1019.5
20260508140005 14 20 6.4 14.5 0.00 0.00 0.00 72 1019.4
20260508135501 15 1 3.2 8.0 0.00 0.00 0.00 71 1019.4
20260508135002 15 15 3.2 8.0 0.00 0.00 0.00 71 1019.3
20260508134457 14 1 3.2 8.0 0.00 0.00 0.00 74 1019.3
20260508133958 14 9 1.6 6.4 0.00 0.00 0.00 78 1019.3
20260508133453 13 46 0.0 4.8 0.00 0.00 0.00 78 1019.4
20260508132949 13 46 1.6 4.8 0.00 0.00 0.00 79 1019.3
20260508132439 13 28 0.0 8.0 0.00 0.00 0.00 79 1019.4
20260508131940 13 53 1.6 8.0 0.00 0.00 0.00 78 1019.3
20260508131435 13 28 0.0 6.4 0.00 0.00 0.00 80 1019.3
20260508130931 13 63 1.6 6.4 0.00 0.00 0.00 78 1019.3
20260508130422 13 60 1.6 6.4 0.00 0.00 0.00 77 1019.3
20260508130144 13 213 1.6 8.0 0.00 0.00 0.00 76 1019.3
20260508125418 13 197 3.2 8.0 0.00 0.00 0.00 76 1019.4
20260508124913 13 1 1.6 6.4 0.00 0.00 0.00 77 1019.4
20260508124415 13 223 3.2 8.0 0.00 0.00 0.00 75 1019.4
20260508123911 13 23 3.2 9.7 0.00 0.00 0.00 77 1019.3
20260508123406 13 314 3.2 9.7 0.00 0.00 0.00 76 1019.2
20260508122906 13 1 1.6 6.4 0.00 0.00 0.00 78 1019.3
20260508122532 13 81 1.6 6.4 0.00 0.00 0.00 80 1019.2
20260508120854 12 178 1.6 4.8 0.00 0.00 0.00 81 1019.4
20260508120354 13 223 1.6 9.7 0.00 0.00 0.00 78 1019.3
20260508115850 13 46 3.2 16.1 0.00 0.00 0.00 76 1019.3
20260508115345 13 215 1.6 16.1 0.00 0.00 0.00 73 1019.4
20260508114845 13 306 3.2 19.3 0.00 0.00 0.00 73 1019.3
20260508114341 13 199 1.6 19.3 0.00 0.00 0.00 72 1019.2
20260508113842 13 245 4.8 14.5 0.00 0.00 0.00 71 1019.0
20260508113554 13 20 4.8 14.5 0.00 0.00 0.00 71 1019.1
20260508112833 14 221 4.8 12.9 0.00 0.00 0.00 70 1018.9
20260508112329 14 243 3.2 12.9 0.00 0.00 0.00 72 1018.9
20260508111823 15 126 3.2 8.0 0.00 0.00 0.00 72 1018.7
20260508111321 15 314 3.2 9.7 0.00 0.00 0.00 73 1018.8
20260508110815 15 23 3.2 9.7 0.00 0.00 0.00 75 1018.8
20260508110330 14 124 3.2 14.5 0.00 0.00 0.00 77 1018.8
20260508105813 13 98 3.2 14.5 0.00 0.00 0.00 77 1018.9
20260508105312 13 145 4.8 12.9 0.00 0.00 0.00 78 1018.9
20260508104808 13 105 3.2 12.9 0.00 0.00 0.00 79 1018.8
20260508104303 12 210 3.2 9.7 0.00 0.00 0.00 79 1018.9
20260508103803 12 340 3.2 9.7 0.00 0.00 0.00 80 1018.9
20260508103259 12 245 3.2 8.0 0.00 0.00 0.00 80 1018.8
20260508103021 12 257 3.2 9.7 0.00 0.00 0.00 79 1018.8
20260508102255 12 340 4.8 9.7 0.00 0.00 0.00 80 1018.8
20260508102009 12 103 3.2 9.7 0.00 0.00 0.00 80 1018.7
20260508101252 12 206 3.2 8.0 0.00 0.00 0.00 80 1018.8
20260508100747 12 117 3.2 8.0 0.00 0.00 0.00 80 1018.8
20260508100247 12 127 3.2 11.3 0.00 0.00 0.00 81 1018.7
20260508095743 11 1 3.2 11.3 0.00 0.00 0.00 80 1018.7
20260508095239 11 269 3.2 9.7 0.00 0.00 0.00 81 1018.6
20260508094729 11 213 3.2 9.7 0.00 0.00 0.00 81 1018.6
20260508094225 11 245 4.8 9.7 0.00 0.00 0.00 81 1018.5
20260508093721 11 238 4.8 11.3 0.00 0.00 0.00 81 1018.5
20260508093438 11 197 3.2 11.3 0.00 0.00 0.00 81 1018.5
20260508092711 11 218 3.2 11.3 0.00 0.00 0.00 81 1018.5
20260508092212 11 238 4.8 14.5 0.00 0.00 0.00 80 1018.6
20260508091707 11 220 4.8 17.7 0.00 0.00 0.00 81 1018.5
20260508091207 11 220 6.4 17.7 0.00 0.00 0.00 80 1018.6
20260508090924 11 269 3.2 11.3 0.00 0.00 0.00 81 1018.6
20260508090204 11 72 3.2 11.3 0.00 0.00 0.00 80 1018.6
20260508085659 11 276 4.8 16.1 0.00 0.00 0.00 81 1018.5
20260508085159 11 240 4.8 16.1 0.00 0.00 0.00 81 1018.5
20260508084923 11 269 6.4 14.5 0.00 0.00 0.00 81 1018.5
20260508084152 11 135 3.2 11.3 0.00 0.00 0.00 81 1018.4
20260508083646 11 233 3.2 11.3 0.00 0.00 0.00 82 1018.3
20260508083148 11 208 3.2 11.3 0.00 0.00 0.00 82 1018.3
20260508082644 11 110 6.4 9.7 0.00 0.00 0.00 81 1018.3
20260508082622 11 35 3.2 9.7 0.00 0.00 0.00 81 1018.2
20260508081638 11 269 4.8 9.7 0.00 0.00 0.00 81 1018.2
20260508081134 11 63 3.2 11.3 0.00 0.00 0.00 81 1018.2
20260508080630 11 269 4.8 11.3 0.00 0.00 0.00 81 1018.2
20260508080126 11 89 3.2 11.3 0.00 0.00 0.00 81 1018.1
20260508075627 11 324 4.8 11.3 0.00 0.00 0.00 81 1018.1
20260508075122 11 1 4.8 11.3 0.00 0.00 0.00 81 1018.0
20260508074617 11 128 3.2 9.7 0.00 0.00 0.00 81 1018.0
20260508074112 11 117 3.2 9.7 0.00 0.00 0.00 81 1017.9
20260508073608 11 257 4.8 9.7 0.00 0.00 0.00 81 1017.9
20260508073103 10 63 3.2 8.0 0.00 0.00 0.00 81 1017.9
20260508072603 10 253 3.2 8.0 0.00 0.00 0.00 81 1017.8
20260508072100 10 223 3.2 8.0 0.00 0.00 0.00 80 1017.7
20260508072047 10 122 4.8 8.0 0.00 0.00 0.00 81 1017.6
20260508071056 10 60 3.2 8.0 0.00 0.00 0.00 81 1017.6
20260508070551 10 130 3.2 8.0 0.00 0.00 0.00 81 1017.5
20260508070047 10 1 1.6 8.0 0.00 0.00 0.00 81 1017.6
20260508065548 10 1 1.6 8.0 0.00 0.00 0.00 81 1017.6
20260508065043 10 220 1.6 8.0 0.00 0.00 0.00 81 1017.5
20260508064539 10 178 3.2 8.0 0.00 0.00 0.00 82 1017.5
20260508064039 10 105 3.2 9.7 0.00 0.00 0.00 82 1017.4
20260508063535 10 46 3.2 9.7 0.00 0.00 0.00 83 1017.3
20260508063248 9 53 3.2 8.0 0.00 0.00 0.00 83 1017.2
20260508062530 9 290 3.2 6.4 0.00 0.00 0.00 84 1017.2
20260508062027 9 81 3.2 6.4 0.00 0.00 0.00 85 1017.1
20260508061959 8 35 3.2 6.4 0.00 0.00 0.00 85 1017.1
20260508061018 8 124 1.6 6.4 0.00 0.00 0.00 86 1017.1
20260508060513 8 206 1.6 3.2 0.00 0.00 0.00 87 1017.1
20260508060014 8 324 1.6 6.4 0.00 0.00 0.00 88 1017.0
20260508055510 8 314 1.6 6.4 0.00 0.00 0.00 88 1017.0
20260508055012 8 46 1.6 3.2 0.00 0.00 0.00 88 1017.0
20260508054507 7 314 0.0 3.2 0.00 0.00 0.00 88 1016.9
20260508053956 7 89 0.0 3.2 0.00 0.00 0.00 88 1016.9
20260508053452 7 135 0.0 1.6 0.00 0.00 0.00 88 1016.8
20260508052952 7 89 0.0 3.2 0.00 0.00 0.00 88 1016.7
20260508052447 7 269 0.0 3.2 0.00 0.00 0.00 88 1016.7
20260508051943 7 28 1.6 3.2 0.00 0.00 0.00 87 1016.6
20260508051438 7 46 1.6 1.6 0.00 0.00 0.00 87 1016.6
20260508050934 7 250 0.0 1.6 0.00 0.00 0.00 87 1016.6
20260508050437 7 28 0.0 1.6 0.00 0.00 0.00 87 1016.5
20260508050138 7 28 0.0 1.6 0.00 0.00 0.00 87 1016.4
20260508045410 7 28 0.0 3.2 0.00 0.00 0.00 86 1016.4
20260508044906 7 1 1.6 3.2 0.00 0.00 0.00 86 1016.4
20260508044402 7 269 1.6 4.8 0.00 0.00 0.00 87 1016.4
20260508043843 7 117 1.6 4.8 0.00 0.00 0.00 87 1016.4
20260508043338 7 145 1.6 4.8 0.00 0.00 0.00 87 1016.4
20260508043054 7 145 1.6 3.2 0.00 0.00 0.00 87 1016.4
20260508042531 7 63 0.0 4.8 0.00 0.00 0.00 87 1016.5
20260508041543 7 102 1.6 4.8 0.00 0.00 0.00 87 1016.5
20260508041051 7 135 1.6 6.4 0.00 0.00 0.00 87 1016.3
20260508040539 7 145 1.6 6.4 0.00 0.00 0.00 87 1016.3
20260508035817 7 135 3.2 6.4 0.00 0.00 0.00 87 1016.2
20260508035755 7 117 3.2 6.4 0.00 0.00 0.00 87 1016.3
20260508034819 7 131 3.2 6.4 0.00 0.00 0.00 87 1016.2
20260508034313 7 89 3.2 6.4 0.00 0.00 0.00 87 1016.3
20260508033809 7 117 3.2 4.8 0.00 0.00 0.00 87 1016.3
20260508033304 7 117 1.6 4.8 0.00 0.00 0.00 87 1016.4
20260508032800 7 178 1.6 4.8 0.00 0.00 0.00 87 1016.4
20260508032305 7 53 3.2 4.8 0.00 0.00 0.00 87 1016.4
20260508031756 7 117 1.6 4.8 0.00 0.00 0.00 87 1016.4
20260508031254 7 240 1.6 4.8 0.00 0.00 0.00 87 1016.5
20260508030748 7 46 1.6 4.8 0.00 0.00 0.00 87 1016.4
20260508030503 7 152 1.6 3.2 0.00 0.00 0.00 86 1016.4
20260508025743 7 213 1.6 3.2 0.00 0.00 0.00 86 1016.3
20260508025239 7 223 0.0 3.2 0.00 0.00 0.00 86 1016.4
20260508024734 7 178 1.6 3.2 0.00 0.00 0.00 86 1016.2
20260508024231 7 89 1.6 3.2 0.00 0.00 0.00 86 1016.3
20260508023949 7 89 1.6 3.2 0.00 0.00 0.00 85 1016.3
20260508023226 7 89 0.0 3.2 0.00 0.00 0.00 85 1016.2
20260508022722 7 46 0.0 3.2 0.00 0.00 0.00 85 1016.2
20260508022426 8 89 0.0 3.2 0.00 0.00 0.00 85 1016.3
20260508021707 8 46 1.6 3.2 0.00 0.00 0.00 85 1016.2
20260508021205 8 135 0.0 3.2 0.00 0.00 0.00 85 1016.2
20260508020927 8 1 0.0 3.2 0.00 0.00 0.00 85 1016.2
20260508020203 8 63 0.0 3.2 0.00 0.00 0.00 85 1016.1
20260508015654 8 89 1.6 3.2 0.00 0.00 0.00 85 1016.2
20260508015417 8 89 1.6 3.2 0.00 0.00 0.00 85 1016.2
20260508014646 8 135 1.6 4.8 0.00 0.00 0.00 85 1016.2
20260508014146 8 135 1.6 4.8 0.00 0.00 0.00 85 1016.2
20260508013643 8 314 0.0 1.6 0.00 0.00 0.00 84 1016.2
20260508013137 8 89 0.0 3.2 0.00 0.00 0.00 84 1016.2
20260508012633 8 269 1.6 3.2 0.00 0.00 0.00 84 1016.2
20260508012130 8 178 1.6 3.2 0.00 0.00 0.00 84 1016.3
20260508011629 8 269 0.0 3.2 0.00 0.00 0.00 83 1016.4
20260508011125 8 46 1.6 3.2 0.00 0.00 0.00 83 1016.5
20260508010626 8 63 0.0 3.2 0.00 0.00 0.00 82 1016.3
20260508010106 8 223 0.0 3.2 0.00 0.00 0.00 82 1016.3
20260508005607 8 89 1.6 3.2 0.00 0.00 0.00 82 1016.2
20260508005104 8 63 0.0 3.2 0.00 0.00 0.00 82 1016.3
20260508004603 8 178 1.6 3.2 0.00 0.00 0.00 82 1016.3
20260508004059 8 213 1.6 3.2 0.00 0.00 0.00 81 1016.4
20260508003554 8 223 1.6 3.2 0.00 0.00 0.00 81 1016.3
20260508003321 8 213 1.6 3.2 0.00 0.00 0.00 81 1016.2
20260508002811 9 20 0.0 6.4 0.00 0.00 0.00 81 1016.2
20260508002045 9 269 0.0 6.4 0.00 0.00 0.00 81 1016.1
20260508001541 9 51 1.6 6.4 0.00 0.00 0.00 80 1016.2
20260508001041 9 240 1.6 8.0 0.00 0.00 0.00 80 1016.3
20260508000538 9 145 3.2 8.0 0.00 0.00 0.00 80 1016.2
20260508000033 9 145 1.6 6.4 0.00 0.00 0.00 80 1016.2
20260507235528 10 152 1.6 6.4 0.00 0.00 0.00 80 1016.2
20260507235024 10 131 1.6 6.4 0.00 0.00 0.00 79 1016.1
20260507234743 10 148 1.6 4.8 0.00 0.00 0.00 79 1016.1
20260507234020 10 46 1.6 4.8 0.00 0.00 0.00 79 1016.2
20260507233521 10 306 1.6 8.0 0.00 0.00 0.00 79 1016.2
20260507233016 10 46 3.2 8.0 0.00 0.00 0.00 79 1016.2
20260507232514 10 269 1.6 6.4 0.00 0.00 0.00 79 1016.2
20260507232455 10 28 3.2 6.4 0.00 0.00 0.00 79 1016.1
20260507231508 10 250 3.2 6.4 0.00 0.00 0.00 78 1016.2
20260507231008 10 142 3.2 6.4 0.00 0.00 0.00 78 1016.1
20260507230517 10 1 1.6 6.4 0.00 0.00 0.00 78 1016.0
20260507230227 10 233 3.2 6.4 0.00 0.00 0.00 79 1016.0
20260507225501 10 63 3.2 6.4 0.00 0.00 0.00 79 1016.2
20260507224956 10 300 1.6 6.4 0.00 0.00 0.00 79 1016.2
20260507224715 10 1 1.6 6.4 0.00 0.00 0.00 79 1016.1
20260507223952 10 124 1.6 6.4 0.00 0.00 0.00 79 1016.2
20260507223707 10 46 3.2 6.4 0.00 0.00 0.00 79 1016.1
20260507222943 10 140 1.6 6.4 0.00 0.00 0.00 79 1016.1
20260507222439 10 314 1.6 6.4 0.00 0.00 0.00 79 1016.1
20260507221934 10 117 0.0 4.8 0.00 0.00 0.00 79 1016.1
20260507221430 10 127 1.6 4.8 0.00 0.00 0.00 79 1016.2
20260507220925 10 46 1.6 3.2 0.00 0.00 0.00 79 1016.2
20260507220426 10 56 1.6 3.2 0.00 0.00 0.00 79 1016.3
20260507215921 10 46 1.6 3.2 0.00 0.00 0.00 79 1016.3
20260507215416 10 105 1.6 3.2 0.00 0.00 0.00 79 1016.2
20260507214912 10 46 1.6 4.8 0.00 0.00 0.00 79 1016.2
20260507214414 10 1 1.6 4.8 0.00 0.00 0.00 79 1016.2
20260507213910 10 46 1.6 4.8 0.00 0.00 0.00 79 1016.2
20260507213851 10 46 1.6 6.4 0.00 0.00 0.00 79 1016.2
20260507212907 10 113 1.6 6.4 0.00 0.00 0.00 80 1016.2
20260507212400 10 223 3.2 4.8 0.00 0.00 0.00 80 1016.2
20260507211902 10 51 3.2 6.4 0.00 0.00 0.00 80 1016.2
20260507211357 10 145 1.6 6.4 0.00 0.00 0.00 80 1016.2
20260507210856 10 130 1.6 6.4 0.00 0.00 0.00 80 1016.3
20260507210617 10 124 1.6 4.8 0.00 0.00 0.00 80 1016.4
20260507205852 10 35 1.6 4.8 0.00 0.00 0.00 80 1016.4
20260507205348 10 76 1.6 4.8 0.00 0.00 0.00 80 1016.3
20260507204844 11 152 1.6 6.4 0.00 0.00 0.00 79 1016.4
20260507204827 11 269 3.2 6.4 0.00 0.00 0.00 79 1016.3
20260507203840 11 195 1.6 6.4 0.00 0.00 0.00 78 1016.3
20260507203340 11 117 3.2 6.4 0.00 0.00 0.00 78 1016.3
20260507202836 11 269 1.6 6.4 0.00 0.00 0.00 77 1016.2
20260507202601 11 13 1.6 12.9 0.00 0.00 0.00 76 1016.1
20260507201828 11 102 3.2 12.9 0.00 0.00 0.00 75 1016.1
20260507201323 11 305 3.2 9.7 0.00 0.00 0.00 74 1016.1
20260507201312 12 105 1.6 8.0 0.00 0.00 0.00 72 1016.0
20260507200319 12 89 3.2 8.0 0.00 0.00 0.00 72 1015.9
20260507195815 12 76 3.2 6.4 0.00 0.00 0.00 72 1015.8
20260507195540 12 135 3.2 6.4 0.00 0.00 0.00 72 1015.7
20260507194812 12 89 3.2 6.4 0.00 0.00 0.00 71 1015.8
20260507194312 12 223 3.2 6.4 0.00 0.00 0.00 71 1015.7
20260507194035 12 135 3.2 6.4 0.00 0.00 0.00 71 1015.7
20260507193307 12 145 3.2 6.4 0.00 0.00 0.00 71 1015.6
20260507192803 12 105 3.2 4.8 0.00 0.00 0.00 70 1015.6
20260507192306 12 135 1.6 4.8 0.00 0.00 0.00 70 1015.6
20260507191800 12 135 3.2 4.8 0.00 0.00 0.00 69 1015.6
20260507191256 12 253 1.6 8.0 0.00 0.00 0.00 69 1015.6
20260507190756 12 223 1.6 8.0 0.00 0.00 0.00 69 1015.6
20260507190251 12 1 1.6 6.4 0.00 0.00 0.00 69 1015.6
20260507190233 12 218 1.6 6.4 0.00 0.00 0.00 68 1015.6
20260507185242 12 79 1.6 8.0 0.00 0.00 0.00 68 1015.6
20260507185005 12 295 3.2 8.0 0.00 0.00 0.00 68 1015.5
20260507184238 12 67 1.6 6.4 0.00 0.00 0.00 68 1015.5
20260507183734 12 223 3.2 8.0 0.00 0.00 0.00 68 1015.5
20260507183235 13 240 1.6 8.0 0.00 0.00 0.00 67 1015.5
20260507183214 13 1 1.6 9.7 0.00 0.00 0.00 67 1015.5
20260507182230 13 9 3.2 9.7 0.00 0.00 0.00 66 1015.4
20260507181726 13 149 3.2 9.7 0.00 0.00 0.00 66 1015.4
20260507181712 13 102 1.6 12.9 0.00 0.00 0.00 66 1015.3
20260507180722 13 216 4.8 14.5 0.00 0.00 0.00 65 1015.3
20260507180218 13 252 4.8 14.5 0.00 0.00 0.00 65 1015.2
20260507175719 13 250 4.8 12.9 0.00 0.00 0.00 65 1015.3
20260507175439 13 269 3.2 9.7 0.00 0.00 0.00 66 1015.4
20260507174714 13 236 4.8 9.7 0.00 0.00 0.00 65 1015.3
20260507174210 13 252 3.2 24.1 0.00 0.00 0.00 66 1015.3
20260507173710 13 145 3.2 14.5 0.00 0.00 0.00 67 1015.4
20260507173437 13 39 4.8 12.9 0.00 0.00 0.00 67 1015.3
20260507172702 13 223 4.8 12.9 0.00 0.00 0.00 66 1015.4
20260507172203 13 108 3.2 12.9 0.00 0.00 0.00 66 1015.4
20260507171658 13 230 3.2 12.9 0.00 0.00 0.00 67 1015.4
20260507171158 13 1 3.2 16.1 0.00 0.00 0.00 67 1015.5
20260507170653 13 187 4.8 16.1 0.00 0.00 0.00 67 1015.3
20260507170149 13 46 6.4 16.1 0.00 0.00 0.00 66 1015.3
20260507165650 13 126 3.2 9.7 0.00 0.00 0.00 66 1015.3
20260507165406 13 46 4.8 9.7 0.00 0.00 0.00 66 1015.4
20260507164645 13 314 3.2 17.7 0.00 0.00 0.00 65 1015.3
20260507164141 13 223 6.4 17.7 0.00 0.00 0.00 65 1015.4
20260507163905 13 89 3.2 9.7 0.00 0.00 0.00 65 1015.4
20260507163137 13 206 3.2 9.7 0.00 0.00 0.00 64 1015.3
20260507162637 13 28 3.2 12.9 0.00 0.00 0.00 63 1015.3
20260507162133 13 248 6.4 12.9 0.00 0.00 0.00 62 1015.3
20260507161858 13 72 3.2 12.9 0.00 0.00 0.00 62 1015.3
20260507161130 13 223 3.2 11.3 0.00 0.00 0.00 61 1015.3
20260507160620 14 329 4.8 11.3 0.00 0.00 0.00 61 1015.3
20260507160115 14 314 3.2 12.9 0.00 0.00 0.00 61 1015.1
20260507155611 14 269 4.8 12.9 0.00 0.00 0.00 59 1015.2
20260507155329 15 135 4.8 14.5 0.00 0.00 0.00 60 1015.2
20260507154601 15 243 6.4 17.7 0.00 0.00 0.00 61 1015.2
20260507154057 14 82 4.8 17.7 0.00 0.00 0.00 60 1015.2
20260507153553 15 233 4.8 14.5 0.00 0.00 0.00 58 1015.3
20260507153053 15 250 4.8 27.4 0.00 0.00 0.00 56 1015.3
20260507152553 15 158 8.0 27.4 0.00 0.00 0.00 57 1015.2
20260507152307 15 259 3.2 14.5 0.00 0.00 0.00 57 1015.2
20260507151551 15 203 6.4 19.3 0.00 0.00 0.00 56 1015.2
20260507151047 15 274 6.4 19.3 0.00 0.00 0.00 55 1015.2
20260507150546 16 191 6.4 20.9 0.00 0.00 0.00 53 1015.2
20260507150042 15 213 9.7 20.9 0.00 0.00 0.00 53 1015.2
20260507145803 16 216 6.4 17.7 0.00 0.00 0.00 54 1015.2
20260507145301 16 236 6.4 14.5 0.00 0.00 0.00 55 1015.3
20260507144534 15 46 4.8 12.9 0.00 0.00 0.00 57 1015.3
20260507144034 15 260 6.4 17.7 0.00 0.00 0.00 56 1015.3
20260507143529 15 98 6.4 17.7 0.00 0.00 0.00 57 1015.4